STARLINK-1075 (44958 NORAD) Tracking and Keplerian Element Data

This shows tracking and keplerian element data for the satellite.

Feedback or suggestion? Click here.




ElementValue
Catalog44958
NameSTARLINK-1075
Epoch Orbit654
Epoch Day48.58334491
Epoch Year2020
RAAN190.4162
Inclination52.9956
Eccentricity0.0001413
Argument of Perigee38.1827
Mean Anonmoly282.9579
Mean Motion15.73272053
Decay Rate-0.00028871
L11 44958U 20001AW 20048.58334491 -.00028871 00000-0 -20131-3 0 9992
L22 44958 52.9956 190.4162 0001413 38.1827 282.9579 15.73272053 6541

Live tracking and technical data element details for STARLINK-1075 (NORAD 44958). STARLINK-1075 can be tracked NOW for your location showing map with azimuth and elevation plus other details from your city location.

Track the satellite on the map from your city or location and see movement details for azimuth, elevation, latitude, longitude, range, height, and movement on the map or in text.







IsCatalogInMostPopularTable: catalog: 44958, numindb: 7
Update: records affected: 1



GetName: 44958 STARLINK-1075

Hit Count: updated at: Tue, 18 Feb 2020 00:11:13 GMT